Location: Frizzleburg
(41.0764°N, 80.4548°W)
Time: 17:54:53
(UTC+00:00)

Cosmos 1151 Rocket - Pass Details

Date: 17 November 2019
Orbit: 592 x 616 km, 82.5° (Epoch: 14 December)

Event Time Altitude Azimuth Distance (km) Brightness Sun altitude
Rises 10:51:18 0° 351° (N) 2,891 6.3 -15.2°
Reaches altitude 10° 10:53:32 10° 350° (N) 1,979 5.4 -14.7°
Maximum altitude 10:57:55 80° 264° (W) 625 2.9 -13.9°
Drops below altitude 10° 11:02:14 10° 177° (S) 1,951 5.8 -13.2°
Sets 11:04:26 0° 177° (S) 2,845 6.7 -12.8°
